Location: Newark
(47.4417°N, 1.1394°W)
Time: 23:58:50
(UTC+00:00)

Envisat - Pass Details

Date: 21 November 2019
Orbit: 764 x 766 km, 98.1° (Epoch: 10 December)

Event Time Altitude Azimuth Distance (km) Brightness Sun altitude
Rises 19:22:17 0° 211° (SSW) 3,221 6.6 -30.0°
Reaches altitude 10° 19:25:25 10° 232° (SW) 2,301 6.0 -30.5°
Maximum altitude 19:28:37 17° 271° (W) 1,881 5.8 -31.0°
Drops below altitude 10° 19:31:51 10° 311° (NW) 2,311 6.1 -31.6°
Sets 19:35:01 0° 332° (NNW) 3,243 6.7 -32.1°
